COSMOS 2251 DEB, 34574

Orbit data source: Space-Track

COSMOS 2251 DEB, 34574 is space debris in LEO originally from a launch on Wed, 16 Jun 1993 UTC launched from the Plesetsk Missile And Space Complex (PKMTR). The debris from Iridium 33, an American commercial communications satellite, has been tracked extensively since its accidental collision with the defunct Russian satellite Cosmos 2251 in 2009. This event, occurring at high speed in low Earth orbit (LEO), generated thousands of pieces of space debris, significantly increasing the risk of further collisions. The Iridium 33 debris cloud has impacted space traffic management and orbital debris mitigation strategies, making it a subject of ongoing study in space situational awareness.

Loading next visibility...
Identifier
34574, 1993-036VL
Orbit
LEO
Country
Flag of CISCIS
Related business
Manufacturer
Unknown
Mission
Spacecraft
Bus & Motor
Unknown
Mass
Unknown
Launch date (UTC)
1993-06-16 (33 years ago)
Launch vehicle
Unknown
Launch site
Plesetsk Missile And Space Complex (PKMTR)
Object type
Payload
Rocket body
Debris
Shape & HBR
Unknown shape, 0.1 m
Radar Cross Section
Small (<0.1 m²)

Expand to show TLE details & history
Last TLE update: 13 hours ago

TLE from 13 hours ago
0 COSMOS 2251 DEB
1 34574U 93036VL  26120.01990625  .00005259  00000-0  80166-3 0  9992
2 34574  74.0653 134.7735 0063084 122.2365 267.8214 14.72789285908136
Epoch: 2026-04-30T00:28Z
TLE epoch observation values (Epoch: 2026-04-30T00:28:39.899Z)
Latitude
28.15664°
Longitude
-81.6232°
Altitude
657.331 km
Speed
7.53 km/s
True Right ascension
09h 34m 03s
True Declination
28° 00' 42"
Sunlit
Object was in daylight at epoch
Visualization orbit readout
Latitude
Unknown
Longitude
Unknown
Altitude
Unknown
Speed
Unknown
Apparent Right ascension
Unknown
Apparent Declination
Unknown
Sunlit
N/A
Visualization observer readout
Local Sidereal Time
20:58:37
Azimuth
Unknown
Elevation
Unknown
Doppler factor
Unknown
Orbital elements
Apogee altitude
694.093 km
Perigee altitude
605.424 km
Semi-major axis
7,027.895 km
Eccentricity
0.00631
Inclination
74.0653°
RAAN
134.7735°
Arg. of periapsis
122.2365°
True anomaly
267.09927°
Mean anomaly
267.8214°
Eccentric anomaly
267.46031°
Mean motion
3.68388 °/min
Orbital period
97.72 mins
BSTAR
0.00080166
Loading maneuver chart data...
Computing Atmospheric mass density...

Documentation

Showing up to 5 results
|